Fairbanks, AK

8:33 AM AKST on November 22, 2019 (GMT -0900)
Fairbanks International

Weather History for PAFA - October, 2019

Change the Weather History Date:

Monday, October 14, 2019

  Actual Average Record
Temperature  
Mean Temperature 26 °F 26 °F  
Max Temperature 34 °F 34 °F 64 °F (1969)
Min Temperature 17 °F 19 °F -7 °F (1965)
Degree Days  
Heating Degree Days 40 39  
Month to date heating degree days 470  
Since 1 July heating degree days 1464  
Cooling Degree Days 0 0  
Month to date cooling degree days 0  
Year to date cooling degree days 61  
Moisture  
Dew Point 14 °F    
Average Humidity 65    
Maximum Humidity 85    
Minimum Humidity 46    
Precipitation  
Precipitation 0.00 in 0.03 in 0.30 in (1958)
Month to date precipitation 0.40  
Year to date precipitation 9.07  
Snow  
Snow - 0.40 in 2.90 in (1945)
Month to date snowfall 3.9  
Since 1 July snowfall 5.7  
Since 1 September snowfall 5.7  
Snow Depth -    
Sea Level Pressure  
Sea Level Pressure 29.96 in    
Wind  
Wind Speed 6 mph ()    
Max Wind Speed 13 mph    
Max Gust Speed -    
Visibility 10.0 miles    
Events      
T = Trace of Precipitation, MM = Missing Value Source: Averaged Metar Reports

Daily Weather History Graph

Daily Weather History Graph

Search for Another Location

Airport or City:

Astronomy

Oct. 14, 2019 Rise Set
Actual Time 8:40 AM AKDT 6:32 PM AKDT
Civil Twilight 7:50 AM AKDT 7:22 PM AKDT
Nautical Twilight 6:54 AM AKDT 8:18 PM AKDT
Astronomical Twilight 5:56 AM AKDT 9:16 PM AKDT
Moon 7:19 PM AKDT (10/14) 9:20 AM AKDT (10/14)
Length of Visible Light 11h 31m
Length of Day
9h 52m
Full, 99% of the Moon is Illuminated
Oct 14
Full
Oct 21
Last Quarter
Oct 27
New
Nov 4
First Quarter
Nov 12
Full

Hourly Weather History & Observations

Time (AKDT) Temp. Windchill Dew Point Humidity Pressure Visibility Wind Dir Wind Speed Gust Speed Precip Events Conditions
12:53 AM 23.0 °F 14.7 °F 16.0 °F 74% 30.13 in 10.0 mi ENE 6.9 mph - N/A   Partly Cloudy
1:53 AM 21.0 °F 12.4 °F 14.0 °F 74% 30.13 in 10.0 mi ENE 6.9 mph - N/A   Clear
2:53 AM 21.0 °F 13.4 °F 14.0 °F 74% 30.12 in 10.0 mi NNE 5.8 mph - N/A   Clear
3:53 AM 19.0 °F 11.1 °F 15.1 °F 85% 30.11 in 10.0 mi ENE 5.8 mph - N/A   Clear
4:53 AM 19.0 °F 10.0 °F 12.9 °F 77% 30.09 in 10.0 mi NE 6.9 mph - N/A   Clear
5:53 AM 19.0 °F 9.0 °F 12.9 °F 77% 30.09 in 10.0 mi NE 8.1 mph - N/A   Clear
6:53 AM 19.0 °F 11.1 °F 12.9 °F 77% 30.07 in 10.0 mi NE 5.8 mph - N/A   Clear
7:53 AM 17.1 °F 7.6 °F 12.0 °F 81% 30.06 in 10.0 mi NE 6.9 mph - N/A   Clear
8:53 AM 18.0 °F 9.8 °F 12.0 °F 78% 30.04 in 10.0 mi NE 5.8 mph - N/A   Clear
9:53 AM 19.9 °F 12.1 °F 14.0 °F 78% 30.03 in 10.0 mi NE 5.8 mph - N/A   Clear
10:53 AM 23.0 °F 14.7 °F 15.1 °F 72% 30.01 in 10.0 mi NE 6.9 mph - N/A   Clear
11:53 AM 27.0 °F 16.1 °F 14.0 °F 58% 30.00 in 10.0 mi East 12.7 mph - N/A   Clear
12:53 PM 30.0 °F 21.1 °F 14.0 °F 51% 29.97 in 10.0 mi ENE 10.4 mph - N/A   Clear
1:53 PM 32.0 °F 24.2 °F 14.0 °F 48% 29.95 in 10.0 mi ENE 9.2 mph - N/A   Clear
2:53 PM 33.1 °F 24.4 °F 14.0 °F 46% 29.93 in 10.0 mi East 11.5 mph - N/A   Clear
3:53 PM 34.0 °F 26.6 °F 15.1 °F 46% 29.90 in 10.0 mi ENE 9.2 mph - N/A   Partly Cloudy
4:53 PM 34.0 °F 26.6 °F 15.1 °F 46% 29.88 in 10.0 mi East 9.2 mph - N/A   Partly Cloudy
5:53 PM 32.0 °F 26.4 °F 16.0 °F 52% 29.86 in 10.0 mi ENE 5.8 mph - N/A   Partly Cloudy
6:53 PM 28.9 °F 23.9 °F 15.1 °F 56% 29.84 in 10.0 mi ENE 4.6 mph - N/A   Partly Cloudy
7:53 PM 28.0 °F 21.7 °F 15.1 °F 58% 29.82 in 10.0 mi ENE 5.8 mph - N/A   Clear
8:53 PM 26.1 °F 17.6 °F 14.0 °F 60% 29.80 in 10.0 mi ENE 8.1 mph - N/A   Clear
9:53 PM 23.0 °F 14.7 °F 12.9 °F 65% 29.78 in 10.0 mi ENE 6.9 mph - N/A   Clear
10:53 PM 21.9 °F 12.5 °F 12.0 °F 66% 29.75 in 10.0 mi NE 8.1 mph - N/A   Clear
11:53 PM 23.0 °F 13.9 °F 12.0 °F 63% 29.73 in 10.0 mi ENE 8.1 mph - N/A   Clear